CAPE
0 0 0 0 0 0 0 0 0 0 0 0 0 0 0 0 0 0 0 0 0 0 0 0 0 0 0 0 0 0 0 0 1 0 0 0 0 0 0 0 0 0 0
0 0 0 0 0 0 0 0 0 0 0 0 0 0 0 0 0 0 0 0 0 0 0 0 0 0 0 0 0 0 0 0 1 3 0 0 0 0 0 0 0 0 0
0 0 0 0 0 0 0 0 0 0 0 0 0 0 0 0 0 0 0 0 0 0 0 0 0 0 0 0 0 0 0 1 0 1 0 0 0 0 0 0 0 0 0
0 0 0 0 0 0 0 0 0 0 0 0 0 0 0 0 0 0 0 0 0 0 0 0 0 0 0 0 0 0 0 0 0 0 0 0 0 0 0 0 0 0 0
0 0 0 0 0 0 0 0 0 0 0 0 0 0 0 0 0 0 0 0 0 0 0 0 0 0 0 0 0 0 0 1 0 0 0 0 0 0 1 2 2 0 0
0 0 0 0 0 0 0 0 0 0 0 0 0 0 0 0 0 0 0 0 0 0 0 0 0 0 0 1 1 1 1 1 0 1 4 4 5 0 0 0 3 2 0
0 0 0 0 0 0 0 0 0 0 0 0 0 0 0 0 0 0 0 0 0 0 0 0 0 0 0 0 1 2 0 4 5 6 3 0 7 0 0 0 1 1 0
0 0 0 0 0 0 0 0 0 0 0 0 0 0 0 0 0 0 0 0 0 0 0 0 0 0 0 0 0 0 0 0 0 2 0 0 0 0 0 0 0 0 0
0 0 0 0 0 0 0 0 0 0 0 0 0 0 0 0 0 0 0 0 0 0 0 0 0 0 0 1 0 0 0 0 2 10 13 8 5 0 0 0 0 0 0
0 0 0 0 0 0 0 0 0 0 0 0 0 0 0 0 0 0 0 0 0 0 0 0 0 0 0 1 0 0 0 0 0 0 0 0 0 0 0 0 0 0 0
0 0 0 0 0 0 0 0 0 0 0 0 0 0 0 0 0 0 0 0 0 0 0 0 0 0 0 4 6 1 0 1 0 0 0 0 0 0 0 0 0 0 0
0 0 0 0 0 0 0 0 0 0 0 0 0 0 0 0 0 0 0 0 0 0 0 0 0 0 3 1 0 0 6 4 0 0 0 0 0 0 0 0 0 0 0
0 0 0 0 0 0 0 0 0 0 0 0 0 0 0 0 0 0 0 0 0 0 0 0 2 5 2 0 0 0 0 0 0 0 0 0 0 0 0 0 0 0 0
0 0 0 0 0 0 0 0 0 0 0 0 0 0 0 0 0 0 0 0 0 0 0 0 0 3 0 0 0 0 0 0 0 0 0 0 0 0 0 0 0 0 0
0 0 0 0 0 0 0 0 0 0 0 0 0 0 0 0 0 0 0 0 0 0 0 0 0 0 0 0 0 0 0 0 0 0 0 0 0 0 0 0 0 0 0
0 0 0 0 0 0 0 0 0 0 0 0 0 0 0 0 0 0 0 0 1 0 0 0 0 0 0 0 0 0 0 0 0 0 0 0 0 0 0 0 0 0 0
0 0 0 0 0 0 0 0 0 0 2 2 0 0 0 0 0 1 1 0 0 0 0 0 0 0 0 0 0 0 0 0 0 0 0 0 0 0 0 0 0 0 0
0 0 0 0 0 0 0 0 0 0 0 0 0 0 0 0 0 1 1 0 0 0 0 0 0 0 0 0 0 0 0 0 0 0 0 0 0 0 0 0 0 0 0
0 0 0 0 0 0 0 0 0 0 0 0 0 0 1 1 1 0 0 0 0 0 0 0 0 0 0 0 0 0 0 0 0 0 0 0 0 0 0 0 0 0 0
0 0 0 0 0 0 0 0 0 0 0 0 0 0 0 0 0 0 0 0 0 0 0 0 0 0 0 0 0 0 0 0 0 0 0 0 0 0 0 0 0 0 0
0 0 0 0 0 0 0 0 0 0 0 0 0 0 0 0 0 0 0 0 0 0 0 0 0 0 0 0 0 0 0 0 0 0 0 0 0 0 0 0 0 0 0
0 0 0 0 0 0 0 0 0 0 0 0 0 0 1 0 0 0 0 0 0 0 0 0 0 0 0 0 0 0 0 0 0 0 0 0 0 0 0 0 0 0 0
0 0 0 0 0 0 0 0 0 0 0 0 0 0 0 0 0 0 0 0 0 0 0 0 0 0 0 0 0 0 0 0 0 0 0 0 0 0 0 0 0 0 0
0 0 0 0 0 0 0 0 0 0 0 0 0 0 0 0 0 0 0 0 0 0 0 0 0 0 0 0 0 0 0 0 0 0 0 0 0 0 0 0 0 0 0
0 0 0 0 0 0 0 0 0 0 0 0 0 0 0 0 0 0 0 0 0 0 0 0 0 0 0 0 0 0 0 0 0 0 0 0 0 0 0 0 0 0 0
0 0 0 0 0 0 0 0 0 0 0 0 0 0 0 0 0 0 0 0 0 0 0 0 0 0 0 0 0 0 0 0 0 0 0 0 0 0 0 0 0 0 0
CIN
-0 -0 -0 -0 -0 -0 -0 -0 -0 -0 -0 -0 -0 -0 -0 -0 -0 -0 -0 -0 -0 -0 -0 -0 -0 -0 -0 -0 -0 -0 -0 -0 -0 -0 -0 -0 -0 -0 -0 -0 -0 -0 -0
-0 -0 -0 -0 -0 -0 -0 -0 -0 -0 -0 -0 -0 -0 -0 -0 -0 -0 -0 -0 -0 -0 -0 -0 -0 -0 -0 -0 -0 -0 -0 -0 -0 -0 -0 -0 -0 -0 -0 -0 -0 -0 -0
-0 -0 -0 -0 -0 -0 -0 -0 -0 -0 -0 -0 -0 -0 -0 -0 -0 -0 -0 -0 -0 -0 -0 -0 -0 -0 -0 -0 -0 -0 -0 -1 -1 -2 -0 -0 -0 -0 -1 -0 -0 -0 -0
-0 -0 -0 -0 -0 -0 -0 -0 -0 -0 -0 -0 -0 -0 -0 -0 -0 -0 -0 -0 -0 -0 -0 -0 -0 -0 -0 -0 -0 -0 -0 -1 -1 -1 -2 -1 -0 -1 -2 -1 -0 -0 -0
-0 -0 -0 -0 -0 -0 -0 -0 -0 -0 -0 -0 -0 -0 -0 -0 -0 -0 -0 -0 -0 -0 -0 -0 -0 -0 -0 -0 -1 -0 -0 -4 -4 -0 -0 -0 -2 -2 -1 -1 -0 -1 -0
-0 -0 -0 -0 -0 -0 -0 -0 -0 -0 -0 -0 -0 -0 -0 -0 -0 -0 -0 -0 -0 -0 -0 -0 -0 -0 -0 -0 -0 -0 -1 -2 -5 -2 -1 -1 -0 -0 -0 -0 -0 -0 -0
-0 -0 -0 -0 -0 -0 -0 -0 -0 -0 -0 -0 -0 -0 -0 -0 -0 -0 -0 -0 -0 -0 -0 -0 -0 -0 -0 -0 -1 -0 -2 -3 -1 -1 -4 -0 -0 -1 -0 -0 -0 -0 -0
-0 -0 -0 -0 -0 -0 -0 -0 -0 -0 -0 -0 -0 -0 -0 -0 -0 -0 -0 -0 -0 -0 -0 -0 -0 -0 -0 -0 -0 -0 -0 -0 -0 -11 -0 -1 -0 -0 -0 -0 -0 -0 -0
-0 -0 -0 -0 -0 -0 -0 -0 -0 -0 -0 -0 -0 -0 -0 -0 -0 -0 -0 -0 -0 -0 -0 -0 -0 -0 -0 -0 -1 -0 -0 -3 -18 -6 -1 -0 -0 -0 -0 -0 -0 -0 -0
-0 -0 -0 -0 -0 -0 -0 -0 -0 -0 -0 -0 -0 -0 -0 -0 -0 -0 -0 -0 -0 -0 -0 -0 -0 -0 -0 -0 -6 -0 -0 -0 -0 -0 -0 -0 -0 -0 -0 -0 -0 -0 -0
-0 -0 -0 -0 -0 -0 -0 -0 -0 -0 -0 -0 -0 -0 -0 -0 -0 -0 -0 -0 -0 -0 -0 -0 -0 -0 -0 -0 -0 -5 -0 -1 -0 -0 -0 -0 -0 -0 -0 -0 -0 -0 -0
-0 -0 -0 -0 -0 -0 -0 -0 -0 -0 -0 -0 -0 -0 -0 -0 -0 -0 -0 -0 -0 -0 -0 -0 -0 -0 -0 -0 -0 -0 -0 -1 -0 -0 -0 -1 -0 -0 -0 -0 -0 -0 -0
-0 -0 -0 -0 -0 -0 -0 -0 -0 -0 -0 -0 -0 -0 -0 -0 -0 -0 -0 -0 -0 -0 -0 -0 -0 -0 -0 -0 -0 -0 -0 -0 -0 -0 -0 -0 -0 -0 -0 -0 -0 -0 -0
-0 -0 -0 -0 -0 -0 -0 -0 -0 -0 -0 -0 -0 -0 -0 -0 -0 -0 -0 -0 -0 -0 -0 -0 -0 -0 -0 -0 -0 -0 -0 -0 -0 -0 -0 -0 -0 -0 -0 -0 -0 -0 -0
-0 -0 -0 -0 -0 -0 -0 -0 -0 -0 -0 -0 -0 -0 -0 -0 -0 -0 -0 -0 -0 -0 -0 -0 -0 -0 -0 -0 -0 -0 -0 -0 -0 -0 -0 -0 -0 -0 -0 -0 -0 -0 -0
-0 -0 -0 -0 -0 -0 -0 -0 -0 -0 -0 -0 -0 -0 -0 -0 -0 -0 -0 -0 -0 -0 -0 -0 -0 -0 -0 -0 -0 -0 -0 -0 -0 -0 -0 -0 -0 -0 -0 -0 -0 -0 -0
-0 -0 -0 -0 -0 -0 -0 -0 -0 -0 -0 -0 -0 -0 -0 -0 -0 -0 -0 -0 -0 -0 -0 -0 -0 -0 -0 -0 -0 -0 -0 -0 -0 -0 -0 -0 -0 -0 -0 -0 -0 -0 -0
-0 -0 -0 -0 -0 -0 -0 -0 -0 -0 -0 -0 -0 -0 -0 -0 -0 -0 -0 -0 -0 -0 -0 -0 -0 -0 -0 -0 -0 -0 -0 -0 -0 -0 -0 -0 -0 -0 -0 -0 -0 -0 -0
-0 -0 -0 -0 -0 -0 -0 -0 -0 -0 -0 -0 -0 -0 -0 -0 -0 -0 -0 -0 -0 -0 -0 -0 -0 -0 -0 -0 -0 -0 -0 -0 -0 -0 -0 -0 -0 -0 -0 -0 -0 -0 -0
-0 -0 -0 -0 -0 -0 -0 -0 -0 -0 -0 -0 -0 -0 -0 -0 -0 -0 -0 -0 -0 -0 -0 -0 -0 -0 -0 -0 -0 -0 -0 -0 -0 -0 -0 -0 -0 -0 -0 -0 -0 -0 -0
-0 -0 -0 -0 -0 -0 -0 -0 -0 -0 -0 -0 -0 -0 -0 -0 -0 -0 -0 -0 -0 -0 -0 -0 -0 -0 -0 -0 -0 -0 -0 -0 -0 -0 -0 -0 -0 -0 -0 -0 -0 -0 -0
-0 -0 -0 -0 -0 -0 -0 -0 -0 -0 -0 -0 -0 -0 -0 -0 -0 -0 -0 -0 -0 -0 -0 -0 -0 -0 -0 -0 -0 -0 -0 -0 -0 -0 -0 -0 -0 -0 -0 -0 -0 -0 -0
-0 -0 -0 -0 -0 -0 -0 -0 -0 -0 -0 -0 -0 -0 -0 -0 -0 -0 -0 -0 -0 -0 -0 -0 -0 -0 -0 -0 -0 -0 -0 -0 -0 -0 -0 -0 -0 -0 -0 -0 -0 -0 -0
-0 -0 -0 -0 -0 -0 -0 -0 -0 -0 -0 -0 -0 -0 -0 -0 -0 -0 -0 -0 -0 -0 -0 -0 -0 -0 -0 -0 -0 -0 -0 -0 -0 -0 -0 -0 -0 -0 -0 -0 -0 -0 -0
-0 -0 -0 -0 -0 -0 -0 -0 -0 -0 -0 -0 -0 -0 -0 -0 -0 -0 -0 -0 -0 -0 -0 -0 -0 -0 -0 -0 -0 -0 -0 -0 -0 -0 -0 -0 -0 -0 -0 -0 -0 -0 -0
-0 -0 -0 -0 -0 -0 -0 -0 -0 -0 -0 -0 -0 -0 -0 -0 -0 -0 -0 -0 -0 -0 -0 -0 -0 -0 -0 -0 -0 -0 -0 -0 -0 -0 -0 -0 -0 -0 -0 -0 -0 -0 -0
Wind_Speed
5 6 7 6 8 10 10 12 11 10 8 8 8 8 7 7 6 7 6 6 7 6 5 5 5 4 3 3 3 2 2 1 5 6 8 10 13 12 13 10 10 11 11
5 7 7 8 8 9 10 11 12 10 7 9 8 7 7 6 6 6 7 5 6 6 5 5 5 3 5 4 3 4 3 4 7 13 13 10 11 12 10 11 9 8 10
6 8 9 9 9 9 10 11 11 10 8 7 7 7 7 6 6 6 6 6 6 6 5 5 4 4 4 4 4 4 3 5 7 8 11 8 8 8 13 10 8 11 9
7 8 10 10 10 9 10 11 10 8 9 7 6 6 6 6 6 6 5 6 6 5 4 5 4 4 4 4 4 4 4 6 7 6 8 8 10 9 9 10 13 10 12
8 8 8 8 8 10 10 9 8 7 7 7 7 6 6 5 4 5 5 5 5 5 5 4 3 4 4 6 3 4 5 4 5 6 6 9 10 9 11 7 10 11 11
9 10 9 9 9 9 9 9 9 8 7 7 6 6 6 4 11 10 7 5 5 5 4 2 2 3 3 7 10 11 10 6 7 5 5 8 9 9 6 7 9 10 8
9 8 9 9 9 9 9 9 9 8 7 6 6 6 5 4 10 9 8 4 5 5 3 2 1 1 2 4 6 10 9 13 12 7 8 7 9 8 5 7 6 5 4
9 10 9 10 10 9 9 8 7 6 6 6 6 6 5 4 10 9 9 5 4 3 3 2 2 2 3 3 4 7 7 7 6 4 5 6 5 2 1 1 3 4 6
12 13 12 11 11 11 10 9 6 6 5 4 4 5 5 3 8 8 7 4 3 3 2 2 2 3 7 9 5 5 4 7 6 10 12 15 10 7 5 2 3 4 4
15 14 12 11 12 12 10 9 4 5 7 6 6 5 5 5 6 8 6 2 3 2 2 2 7 7 9 11 4 3 4 5 3 2 5 7 7 6 6 3 2 1 2
12 12 12 12 12 10 10 4 7 8 7 5 5 4 4 4 4 6 7 3 3 2 2 2 3 11 12 11 11 4 6 4 3 1 2 3 4 4 3 3 4 3 3
14 15 14 12 9 9 12 8 8 9 8 6 6 4 3 3 5 5 6 7 6 4 3 3 4 12 13 13 8 13 15 6 1 3 3 6 6 5 3 3 4 4 3
14 14 13 12 10 10 11 10 7 7 6 6 5 5 4 3 2 6 6 5 5 2 2 6 12 11 10 6 10 13 9 1 1 1 4 6 6 3 3 3 2 3 3
13 13 12 13 11 9 7 7 7 7 6 5 5 5 4 3 3 3 3 2 5 4 6 4 8 7 5 6 2 5 2 2 2 3 3 3 2 1 2 1 1 1 1
11 10 11 10 12 10 6 7 6 2 6 7 6 5 6 6 5 7 5 3 3 6 3 0 1 1 2 2 2 2 2 2 3 3 2 3 2 1 2 0 0 1 1
12 11 11 10 9 8 8 5 4 5 8 8 8 6 2 3 8 10 10 10 5 3 3 1 2 1 1 2 2 2 2 3 3 2 2 2 2 2 2 1 1 1 1
13 13 10 11 10 10 8 8 8 2 7 11 10 12 11 8 12 11 11 8 2 4 3 3 3 1 2 3 2 2 3 3 2 2 2 2 1 2 2 1 1 1 1
10 14 11 11 11 10 9 8 7 8 8 5 11 10 12 12 11 11 8 5 1 1 2 3 2 2 2 2 2 2 2 2 2 2 2 1 1 1 2 1 0 1 1
9 9 9 8 8 9 8 7 7 7 8 5 2 7 7 12 13 9 8 3 4 3 3 2 3 2 2 2 2 3 3 3 1 0 1 1 1 1 2 2 2 3 3
8 12 11 9 8 8 7 8 7 6 6 7 7 7 5 3 4 4 3 3 3 3 2 3 3 3 4 4 3 2 2 2 1 1 1 0 0 1 3 3 2 2 2
6 7 9 6 8 8 8 9 8 8 7 7 6 6 13 6 7 5 4 3 4 4 4 4 3 3 3 3 3 2 3 3 2 2 1 1 1 1 1 2 3 3 2
4 5 6 7 6 7 8 7 7 7 7 8 5 5 19 4 4 4 4 4 4 4 3 3 3 4 4 4 4 3 4 4 2 2 1 2 1 2 2 2 3 2 2
4 5 4 3 5 6 5 5 7 7 7 6 6 6 3 3 4 4 4 4 3 3 3 3 4 4 4 4 4 4 4 5 4 4 2 2 2 2 2 3 3 3 3
5 6 6 6 6 6 6 7 6 7 7 6 6 6 6 5 5 5 4 3 3 3 2 3 4 6 4 5 4 4 5 4 4 4 5 3 3 4 3 3 4 4 4
4 5 6 6 7 7 6 6 5 5 6 7 6 6 4 4 5 5 4 4 3 3 4 4 4 6 8 9 6 7 7 9 6 6 4 5 6 6 5 4 4 4 4
6 6 6 5 6 7 7 7 7 7 7 6 6 6 6 5 5 5 4 4 4 4 5 4 5 8 8 7 8 9 9 9 7 8 7 6 6 5 6 7 7 5 5
Wind_Direction
155 141 141 133 134 132 135 133 130 131 133 126 127 122 120 116 108 102 94 96 93 92 71 76 65 53 46 39 25 15 23 340 308 316 322 323 328 332 333 338 325 325 322
142 135 127 125 127 129 136 124 131 129 129 133 129 117 113 118 122 113 109 102 107 97 86 83 65 56 46 24 19 15 355 338 331 317 324 327 328 336 328 327 323 332 326
143 135 132 135 134 139 130 124 121 133 127 113 116 126 131 133 117 110 120 119 110 98 93 87 82 65 41 13 4 355 335 335 329 317 321 329 326 321 333 330 337 333 332
146 145 145 142 141 139 132 128 132 131 128 124 123 129 130 123 127 130 123 111 108 103 102 98 77 62 42 355 339 329 330 331 328 323 325 317 327 334 331 331 340 344 329
150 150 147 132 125 128 123 123 121 118 124 128 128 123 121 123 136 128 120 120 125 115 101 102 88 54 14 349 329 327 321 313 317 322 311 322 326 342 338 345 331 327 325
163 160 145 134 133 128 127 130 125 123 127 130 134 128 137 133 140 135 135 132 124 111 106 104 73 36 335 335 331 325 320 322 314 308 317 319 319 331 328 342 333 341 336
155 145 144 139 137 137 135 135 138 143 137 138 131 137 136 148 147 141 137 128 128 130 151 152 111 210 309 307 312 315 308 303 311 313 309 306 312 322 339 324 329 318 270
155 153 147 147 146 145 144 146 138 140 142 140 143 151 149 173 167 165 153 153 142 152 191 212 222 281 285 291 268 310 315 288 282 279 276 284 289 300 312 283 280 269 277
170 171 169 159 153 155 159 153 144 135 124 127 135 143 154 162 188 194 169 169 157 196 214 220 231 261 283 301 286 289 305 282 275 311 321 323 329 324 328 52 350 356 320
179 173 166 164 161 164 156 150 135 127 136 137 140 157 162 167 191 200 197 167 186 204 251 254 256 248 279 298 276 235 251 255 260 299 323 325 341 311 316 186 209 229 254
163 156 158 162 162 157 144 131 137 135 133 140 142 150 160 171 192 196 208 175 188 184 192 246 248 266 283 286 294 256 224 258 277 242 278 318 317 290 267 235 208 177 183
158 160 164 161 154 150 147 141 147 146 146 152 149 153 167 190 188 206 205 210 205 166 206 230 253 283 280 280 298 312 305 322 27 291 278 297 295 297 274 269 248 215 219
161 162 158 149 147 151 149 148 144 151 158 161 167 174 185 177 206 214 213 232 251 239 217 259 277 295 295 307 316 316 315 135 182 269 270 280 281 246 273 299 314 274 238
163 159 155 152 147 148 145 155 154 164 163 162 178 192 179 183 200 199 217 260 272 266 270 275 272 288 322 314 322 329 301 266 237 232 242 252 276 301 273 196 249 292 37
158 155 158 155 157 152 150 162 168 160 178 172 195 180 170 202 207 202 207 217 223 236 243 27 269 311 309 313 326 315 312 284 249 238 245 281 289 292 286 81 262 329 160
158 163 166 158 155 152 148 126 163 165 188 195 184 169 190 199 191 211 227 239 251 278 56 178 253 254 290 297 293 290 292 279 264 241 248 232 252 270 275 268 146 199 237
173 169 163 160 158 156 158 161 160 145 211 204 197 198 195 204 216 219 223 213 165 111 152 207 209 225 272 299 298 277 280 282 277 268 266 270 282 285 282 253 235 224 264
177 175 170 164 162 163 170 172 164 176 173 185 214 199 209 212 212 216 199 128 127 41 182 182 214 216 258 254 267 260 288 302 288 297 298 302 341 303 309 306 326 218 227
168 172 170 163 165 164 155 160 173 186 177 160 142 213 211 208 213 190 177 161 191 206 201 206 212 220 254 270 272 280 265 260 227 257 289 7 353 322 289 298 291 283 257
178 171 166 162 154 159 167 168 183 185 175 180 188 189 150 152 186 189 196 168 176 205 207 220 226 214 225 226 240 252 293 313 289 212 222 172 244 288 290 306 303 293 260
170 161 162 155 171 174 174 187 183 178 185 188 195 179 187 186 194 192 193 189 192 207 208 204 221 226 231 240 237 226 213 237 226 212 181 228 198 267 253 282 288 276 257
149 154 169 176 172 177 187 177 171 178 183 184 178 192 205 175 178 190 202 206 207 205 194 183 210 215 215 208 207 207 227 226 227 228 199 229 222 241 252 264 279 280 273
153 159 172 182 173 168 163 181 184 189 190 185 167 182 175 177 189 202 211 210 203 207 204 190 216 239 227 231 216 205 204 229 215 190 195 222 225 230 220 254 266 268 260
178 183 189 191 185 189 198 197 194 189 177 175 177 190 195 182 190 206 210 214 209 227 207 217 225 233 239 238 234 220 225 230 205 204 192 198 229 241 224 227 243 252 259
207 200 201 193 198 201 180 189 186 190 196 189 182 190 195 191 192 201 201 206 216 210 228 212 221 240 244 249 246 244 238 243 212 200 197 206 222 224 235 233 233 240 242
208 209 209 197 196 195 199 199 194 181 195 196 195 193 194 195 200 189 196 198 216 225 232 227 235 241 250 249 251 251 240 237 228 223 212 212 221 222 225 229 228 233 231